2023/01/16 00:00:00,26.3, 2.0
2023/01/16 00:10:00,26.3, 2.2
2023/01/16 00:20:00,26.4, 2.0
2023/01/16 00:30:00,26.4, 2.0
2023/01/16 00:40:00,26.4, 2.0
2023/01/16 00:50:00,26.4, 1.9
2023/01/16 01:00:00,26.5, 2.3
2023/01/16 01:10:00,26.5, 1.9
2023/01/16 01:20:00,26.4, 1.8
2023/01/16 01:30:00,26.3, 2.0
2023/01/16 01:40:00,26.4, 1.9
2023/01/16 01:50:00,26.5, 2.1
2023/01/16 02:00:00,26.5, 2.0
2023/01/16 02:10:00,26.7, 1.9
2023/01/16 02:20:00,26.9, 2.0
2023/01/16 02:30:00,27.1, 1.9
2023/01/16 02:40:00,27.6, 2.0
2023/01/16 02:50:00,27.4, 1.8
2023/01/16 03:00:00,27.0, 1.8
2023/01/16 03:10:00,26.0, 1.7
2023/01/16 03:20:00,26.0, 2.5
2023/01/16 03:30:00,25.8, 2.2
2023/01/16 03:40:00,25.4, 2.3
2023/01/16 03:50:00,25.3, 2.0
2023/01/16 04:00:00,25.0, 1.5
2023/01/16 04:10:00,24.9, 1.7
2023/01/16 04:20:00,24.6, 1.7
2023/01/16 04:30:00,24.7, 1.5
2023/01/16 04:40:00,24.8, 1.8
2023/01/16 04:50:00,24.8, 2.0
2023/01/16 05:00:00,24.7, 2.1
2023/01/16 05:10:00,24.7, 2.4
2023/01/16 05:20:00,24.9, 1.8
2023/01/16 05:30:00,25.1, 1.9
2023/01/16 05:40:00,24.9, 1.8
2023/01/16 05:50:00,24.9, 1.7
2023/01/16 06:00:00,24.9, 1.5
2023/01/16 06:10:00,25.0, 2.2
2023/01/16 06:20:00,25.1, 1.7
2023/01/16 06:30:00,25.2, 1.9
2023/01/16 06:40:00,25.3, 1.8
2023/01/16 06:50:00,25.4, 1.5
2023/01/16 07:00:00,25.4, 1.4
2023/01/16 07:10:00,25.1, 1.2
2023/01/16 07:20:00,24.9, 1.0
2023/01/16 07:30:00,24.7, 1.3
2023/01/16 07:40:00,24.7, 1.4
2023/01/16 07:50:00,24.7, 1.6
2023/01/16 08:00:00,24.6, 1.1
2023/01/16 08:10:00,24.5, 1.6
2023/01/16 08:20:00,24.5, 1.3
2023/01/16 08:30:00,24.5, 1.0
2023/01/16 08:40:00,24.3, 1.2
2023/01/16 08:50:00,24.2, 1.0
2023/01/16 09:00:00,24.4, 1.0
2023/01/16 09:10:00,24.4, 1.0
2023/01/16 09:20:00,24.4, 1.1
2023/01/16 09:30:00,24.4, 1.5
2023/01/16 09:40:00,24.6, 1.0
2023/01/16 09:50:00,25.0, 1.4
2023/01/16 10:00:00,24.5, 1.2
2023/01/16 10:10:00,24.6, 1.5
2023/01/16 10:20:00,24.6, 1.7
2023/01/16 10:30:00,24.5, 1.7
2023/01/16 10:40:00,24.6, 1.8
2023/01/16 10:50:00,24.7, 2.2
2023/01/16 11:00:00,24.7, 2.5
2023/01/16 11:10:00,24.7, 2.3
2023/01/16 11:20:00,24.6, 1.7
2023/01/16 11:30:00,24.7, 2.0
2023/01/16 11:40:00,24.7, 1.9
2023/01/16 11:50:00,24.7, 2.2
2023/01/16 12:00:00,24.7, 1.8
2023/01/16 12:10:00,24.8, 2.1
2023/01/16 12:20:00,24.7, 2.2
2023/01/16 12:30:00,24.7, 2.1
2023/01/16 12:40:00,24.8, 2.3
2023/01/16 12:50:00,24.8, 2.4
2023/01/16 13:00:00,24.8, 1.8
2023/01/16 13:10:00,25.1, 1.4
2023/01/16 13:20:00,25.5, 1.5
2023/01/16 13:30:00,25.4, 1.7
2023/01/16 13:40:00,25.3, 1.9
2023/01/16 13:50:00,25.2, 1.4
2023/01/16 14:00:00,25.7, 1.2
2023/01/16 14:10:00,25.9, 1.4
2023/01/16 14:20:00,26.3, 0.6
2023/01/16 14:30:00,26.9, 1.0
2023/01/16 14:40:00,27.4, 0.7
2023/01/16 14:50:00,27.8, 0.8
2023/01/16 15:00:00,28.1, 0.3
2023/01/16 15:10:00,28.4, 0.0
2023/01/16 15:20:00,28.5, 0.1
2023/01/16 15:30:00,28.6, 0.1
2023/01/16 15:40:00,29.1, 0.4
2023/01/16 15:50:00,29.1, 0.4
2023/01/16 16:00:00,29.4,-0.2
2023/01/16 16:10:00,29.9, 0.0
2023/01/16 16:20:00,29.9,-0.2
2023/01/16 16:30:00,30.5,-0.2
2023/01/16 16:40:00,30.7,-0.5
2023/01/16 16:50:00,31.6,-0.3
2023/01/16 17:00:00,32.3,-0.3
2023/01/16 17:10:00,32.2,-0.7
2023/01/16 17:20:00,32.2,-0.4
2023/01/16 17:30:00,32.9,-0.4
2023/01/16 17:40:00,33.4,-0.5
2023/01/16 17:50:00,33.8,-0.6
2023/01/16 18:00:00,34.3,-1.0
2023/01/16 18:10:00,34.7,-0.6
2023/01/16 18:20:00,35.2,-0.8
2023/01/16 18:30:00,35.2,-1.2
2023/01/16 18:40:00,35.3,-1.0
2023/01/16 18:50:00,35.7,-1.2
2023/01/16 19:00:00,36.2,-1.2
2023/01/16 19:10:00,36.3,-1.1
2023/01/16 19:20:00,36.3,-1.1
2023/01/16 19:30:00,36.7,-1.1
2023/01/16 19:40:00,36.8,-1.2
2023/01/16 19:50:00,37.5,-1.0
2023/01/16 20:00:00,37.4,-1.2
2023/01/16 20:10:00,37.5,-1.2
2023/01/16 20:20:00,37.5,-1.0
2023/01/16 20:30:00,37.8,-1.1
2023/01/16 20:40:00,38.2,-1.0
2023/01/16 20:50:00,38.3,-1.0
2023/01/16 21:00:00,38.3,-1.3
2023/01/16 21:10:00,38.5,-1.0
2023/01/16 21:20:00,38.9,-1.4
2023/01/16 21:30:00,39.0,-1.1
2023/01/16 21:40:00,38.8,-1.2
2023/01/16 21:50:00,39.2,-1.2
2023/01/16 22:00:00,39.3,-1.2
2023/01/16 22:10:00,39.7,-1.4
2023/01/16 22:20:00,39.7,-1.5
2023/01/16 22:30:00,39.5,-1.4
2023/01/16 22:40:00,39.6,-1.4
2023/01/16 22:50:00,39.7,-1.2
2023/01/16 23:00:00,39.8,-1.4
2023/01/16 23:10:00,39.9,-1.5
2023/01/16 23:20:00,39.8,-1.4
2023/01/16 23:30:00,39.9,-1.2
2023/01/16 23:40:00,40.0,-1.4
2023/01/16 23:50:00,40.1,-1.6
